Location: Albany
(35.0000°S, 118.0000°E)
Time: 09:57:16
(UTC-04:00)

JAS-1B - Visible Passes

Search period start: 28 March 2017 00:00
Search period end: 07 April 2017 00:00
Orbit: 912 x 1744 km, 99.0° (Epoch: 26 March)

Date Brightness Start Highest point End Pass type
(mag) Time Alt. Az. Time Alt. Az. Time Alt. Az.
28 Mar 8.8 14:48:19 10° SSE 14:55:43 40° E 14:59:30 28° NE visible
28 Mar 8.1 16:38:56 10° S 16:46:05 42° WSW 16:51:45 20° NW visible
29 Mar 8.3 15:06:59 10° SSE 15:14:47 55° E 15:18:44 34° NNE visible
29 Mar 8.5 16:58:19 10° S 17:04:59 32° WSW 17:11:00 15° WNW visible
30 Mar 10.1 13:40:09 10° ESE 13:42:44 11° E 13:45:23 10° ENE visible
30 Mar 8.0 15:25:49 10° SSE 15:33:50 73° ENE 15:37:59 37° N visible
30 Mar 8.8 17:17:54 10° SSW 17:23:49 24° WSW 17:30:15 11° WNW visible
31 Mar 9.8 13:56:42 10° SE 14:02:00 18° E 14:04:59 15° ENE visible
31 Mar 7.8 15:44:46 10° SSE 15:52:52 87° WSW 15:57:14 37° NNW visible
31 Mar 9.1 17:37:45 10° SSW 17:42:36 18° WSW 17:47:52 10° W visible
01 Apr 9.5 14:14:33 10° SE 14:21:13 25° E 14:24:13 21° ENE visible
01 Apr 7.8 16:03:51 10° S 16:11:52 68° WSW 16:16:28 33° NW visible
01 Apr 9.3 17:58:15 10° SW 18:01:17 12° WSW 18:04:27 10° W visible
02 Apr 9.1 14:32:52 10° SE 14:40:23 35° E 14:43:27 29° NE visible
02 Apr 8.0 16:23:02 10° S 16:30:51 52° WSW 16:35:42 28° NW visible
03 Apr 8.7 14:51:27 10° SSE 14:59:30 47° E 15:02:41 36° NE visible
03 Apr 8.3 16:42:19 10° S 16:49:46 39° WSW 16:54:56 22° WNW visible
04 Apr 8.3 15:10:12 10° SSE 15:18:35 62° ENE 15:21:54 42° NNE visible
04 Apr 8.6 17:01:46 10° S 17:08:38 30° WSW 17:14:09 17° WNW visible
05 Apr 10.0 13:41:59 10° ESE 13:46:35 15° E 13:48:52 14° ENE visible
05 Apr 8.0 15:29:06 10° SSE 15:37:38 81° ENE 15:41:07 45° N visible
05 Apr 8.9 17:21:24 10° SSW 17:27:25 22° WSW 17:33:22 12° WNW visible
06 Apr 9.7 13:59:27 10° SE 14:05:51 22° E 14:08:05 20° ENE visible
06 Apr 7.9 15:48:07 10° S 15:56:40 79° WSW 16:00:20 44° NNW visible
06 Apr 9.2 17:41:21 10° SSW 17:46:09 17° WSW 17:51:17 10° W visible
